TimeIST,TemperatureF,Dew PointF,Humidity,Sea Level PressureIn,VisibilityMPH,Wind Direction,Wind SpeedMPH,Gust SpeedMPH,PrecipitationIn,Events,Conditions,WindDirDegrees,DateUTC
12:00 AM,48.2,46.4,93,30.12,-9999.0,NW,4.6,-,N/A,,Clear,310,2013-09-13 23:00:00
12:30 AM,48.2,46.4,93,30.12,-9999.0,NW,4.6,-,N/A,,Clear,320,2013-09-13 23:30:00
1:00 AM,48,45,85,30.13,12,NNE,2.2,,,,Scattered Clouds,20,2013-09-14 00:00:00
1:00 AM,48.2,44.6,87,30.12,6.2,NNE,2.3,-,N/A,,Mostly Cloudy,20,2013-09-14 00:00:00
1:30 AM,48.2,44.6,87,30.12,6.2,NE,1.2,-,N/A,,Mostly Cloudy,40,2013-09-14 00:30:00
2:00 AM,48.2,46.4,93,30.12,6.2,WSW,1.2,-,N/A,,Mostly Cloudy,240,2013-09-14 01:00:00
2:30 AM,48.2,46.4,93,30.12,6.2,West,2.3,-,N/A,,Mostly Cloudy,280,2013-09-14 01:30:00
3:00 AM,48.2,46.4,93,30.12,6.2,NW,5.8,-,N/A,,Mostly Cloudy,320,2013-09-14 02:00:00
3:30 AM,48.2,46.4,93,30.12,6.2,North,1.2,-,N/A,,Mostly Cloudy,350,2013-09-14 02:30:00
4:00 AM,48.2,46.4,93,30.12,6.2,North,2.3,-,N/A,,Mostly Cloudy,10,2013-09-14 03:00:00
4:30 AM,50.0,46.4,87,30.12,6.2,NNW,2.3,-,N/A,,Mostly Cloudy,340,2013-09-14 03:30:00
5:00 AM,50.0,46.4,87,30.12,6.2,WNW,2.3,-,N/A,,Mostly Cloudy,300,2013-09-14 04:00:00
5:30 AM,48.2,46.4,93,30.12,-9999.0,NNE,3.5,-,N/A,,Clear,20,2013-09-14 04:30:00
6:00 AM,48.2,46.4,93,30.12,-9999.0,SSE,1.2,-,N/A,,Clear,150,2013-09-14 05:00:00
6:30 AM,46.4,44.6,93,30.12,6.2,NNE,3.5,-,N/A,,Scattered Clouds,20,2013-09-14 05:30:00
7:00 AM,47,45,91,30.14,12,North,4.5,,,,Scattered Clouds,0,2013-09-14 06:00:00
7:00 AM,46.4,44.6,93,30.12,6.2,North,3.5,-,N/A,,Mostly Cloudy,360,2013-09-14 06:00:00
7:30 AM,46.4,44.6,93,30.12,6.2,North,2.3,-,N/A,,Mostly Cloudy,360,2013-09-14 06:30:00
8:00 AM,46.4,44.6,93,30.12,6.2,Variable,1.2,-,N/A,,Scattered Clouds,0,2013-09-14 07:00:00
8:30 AM,46.4,44.6,93,30.15,-9999.0,East,2.3,-,N/A,,Clear,100,2013-09-14 07:30:00
9:00 AM,50.0,48.2,94,30.15,-9999.0,NNW,2.3,-,N/A,,Clear,330,2013-09-14 08:00:00
9:30 AM,53.6,48.2,82,30.15,6.2,ENE,1.2,-,N/A,,Partly Cloudy,70,2013-09-14 08:30:00
10:00 AM,55.4,50.0,82,30.15,6.2,Variable,2.3,-,N/A,,Partly Cloudy,0,2013-09-14 09:00:00
10:30 AM,55.4,48.2,77,30.18,6.2,Variable,2.3,-,N/A,,Partly Cloudy,0,2013-09-14 09:30:00
11:00 AM,57.2,48.2,72,30.18,6.2,Variable,2.3,-,N/A,,Partly Cloudy,0,2013-09-14 10:00:00
11:30 AM,57.2,46.4,67,30.18,6.2,Variable,2.3,-,N/A,,Partly Cloudy,0,2013-09-14 10:30:00
12:00 PM,59.0,46.4,63,30.15,6.2,West,4.6,-,N/A,,Partly Cloudy,280,2013-09-14 11:00:00
12:30 PM,59.0,46.4,63,30.15,6.2,SSE,5.8,-,N/A,,Partly Cloudy,150,2013-09-14 11:30:00
1:00 PM,59,46,52,30.17,28,SSW,6.7,,,,Partly Cloudy,210,2013-09-14 12:00:00
1:00 PM,59.0,46.4,63,30.15,6.2,SSW,5.8,-,N/A,,Partly Cloudy,210,2013-09-14 12:00:00
1:30 PM,59.0,46.4,63,30.15,6.2,SSW,5.8,-,N/A,,Mostly Cloudy,210,2013-09-14 12:30:00
2:00 PM,59.0,46.4,63,30.15,6.2,WSW,4.6,-,N/A,,Mostly Cloudy,240,2013-09-14 13:00:00
2:30 PM,59.0,46.4,63,30.15,6.2,SW,5.8,-,N/A,,Mostly Cloudy,220,2013-09-14 13:30:00
3:00 PM,60.8,48.2,63,30.15,6.2,SW,5.8,-,N/A,,Scattered Clouds,220,2013-09-14 14:00:00
3:30 PM,60.8,48.2,63,30.15,6.2,SW,5.8,-,N/A,,Mostly Cloudy,220,2013-09-14 14:30:00
4:00 PM,60.8,48.2,63,30.15,6.2,SW,5.8,-,N/A,,Scattered Clouds,220,2013-09-14 15:00:00
4:30 PM,60.8,50.0,68,30.12,6.2,SW,6.9,-,N/A,,Scattered Clouds,220,2013-09-14 15:30:00
5:00 PM,60.8,50.0,68,30.12,6.2,SW,6.9,-,N/A,,Scattered Clouds,220,2013-09-14 16:00:00
5:30 PM,60.8,50.0,68,30.12,6.2,WSW,12.7,-,N/A,,Mostly Cloudy,250,2013-09-14 16:30:00
6:00 PM,60.8,50.0,68,30.12,6.2,West,10.4,-,N/A,,Scattered Clouds,270,2013-09-14 17:00:00
6:30 PM,59.0,50.0,72,30.12,6.2,WSW,6.9,-,N/A,,Scattered Clouds,250,2013-09-14 17:30:00
7:00 PM,59,50,64,30.14,19,West,6.7,,,,Scattered Clouds,270,2013-09-14 18:00:00
7:00 PM,59.0,50.0,72,30.12,6.2,West,6.9,-,N/A,,Scattered Clouds,270,2013-09-14 18:00:00
7:30 PM,57.2,50.0,77,30.12,6.2,West,6.9,-,N/A,,Mostly Cloudy,260,2013-09-14 18:30:00
8:00 PM,55.4,50.0,82,30.12,6.2,West,6.9,-,N/A,,Mostly Cloudy,260,2013-09-14 19:00:00
8:30 PM,55.4,50.0,82,30.12,6.2,WSW,6.9,-,N/A,,Mostly Cloudy,250,2013-09-14 19:30:00
9:00 PM,55.4,50.0,82,30.12,6.2,SW,5.8,-,N/A,,Mostly Cloudy,220,2013-09-14 20:00:00
9:30 PM,55.4,50.0,82,30.12,6.2,SSW,5.8,-,N/A,,Mostly Cloudy,210,2013-09-14 20:30:00
10:00 PM,55.4,50.0,82,30.09,6.2,SSW,5.8,-,N/A,,Mostly Cloudy,200,2013-09-14 21:00:00
10:30 PM,53.6,50.0,88,30.09,6.2,South,8.1,-,N/A,,Mostly Cloudy,190,2013-09-14 21:30:00
11:00 PM,53.6,50.0,88,30.06,6.2,South,8.1,-,N/A,,Mostly Cloudy,170,2013-09-14 22:00:00
11:30 PM,53.6,50.0,88,30.06,-9999.0,South,9.2,-,N/A,,Clear,180,2013-09-14 22:30:00